DW8108 Weather Reports


Display with metric or nautical units.
time (UTC)temp
F
wind
direction
speed
MPH
gust
MPH
rain 1hr
in
rain 24hr
in
rain mn
in
humidity
%
barometer
mb
20260509173052 71 0.0 17.0 0.00 0.00 0.00 61 1004.0
20260509171549 70 0.0 13.0 0.00 0.00 0.00 66 1003.9
20260509170045 69 0.0 20.0 0.00 0.00 0.00 66 1004.0
20260509164543 69 0.0 20.0 0.00 0.00 0.00 66 1004.1
20260509163050 69 0.0 17.0 0.00 0.00 0.00 69 1004.3
20260509161535 67 0.0 17.0 0.00 0.00 0.00 72 1004.4
20260509160032 66 0.0 13.0 0.00 0.00 0.00 73 1004.5
20260509154530 66 0.0 19.0 0.00 0.00 0.00 74 1004.8
20260509153029 65 0.0 17.0 0.00 0.00 0.00 75 1004.6
20260509151524 64 0.0 14.0 0.00 0.00 0.00 76 1004.5
20260509150021 63 0.0 15.0 0.00 0.00 0.00 78 1004.5
20260509144517 62 0.0 15.0 0.00 0.00 0.00 81 1004.6
20260509143014 61 0.0 15.0 0.00 0.00 0.00 84 1004.5
20260509141510 60 0.0 11.0 0.00 0.00 0.00 89 1004.6
20260509140006 58 0.0 14.0 0.00 0.00 0.00 93 1004.9
20260509134503 57 0.0 11.0 0.00 0.00 0.00 95 1005.0
20260509133106 55 0.0 10.0 0.00 0.00 0.00 96 1005.1
20260509131556 54 0.0 13.0 0.00 0.00 0.00 96 1004.7
20260509130053 54 0.0 12.0 0.00 0.00 0.00 96 1004.7
20260509124602 53 0.0 11.0 0.00 0.05 0.00 96 1004.9
20260509123051 52 0.0 11.0 0.00 0.05 0.00 96 1004.9
20260509121550 52 0.0 12.0 0.00 0.05 0.00 96 1004.9
20260509120049 52 0.0 7.0 0.00 0.05 0.00 96 1004.9
20260509114556 52 0.0 7.0 0.00 0.07 0.00 96 1004.9
20260509113050 52 0.0 7.0 0.00 0.07 0.00 96 1004.8
20260509111548 51 0.0 7.0 0.00 0.07 0.00 96 1004.7
20260509110053 51 0.0 7.0 0.00 0.07 0.00 96 1004.6
20260509104546 50 0.0 9.0 0.00 0.07 0.00 96 1004.7
20260509103044 50 0.0 6.0 0.00 0.07 0.00 96 1004.8
20260509101544 50 0.0 7.0 0.00 0.07 0.00 95 1004.9
20260509100041 50 0.0 7.0 0.00 0.07 0.00 95 1004.9
20260509094542 50 0.0 7.0 0.00 0.07 0.00 95 1004.9
20260509093040 50 0.0 7.0 0.00 0.07 0.00 95 1005.0
20260509091540 50 0.0 8.0 0.00 0.07 0.00 95 1005.1
20260509090039 49 0.0 8.0 0.00 0.07 0.00 95 1005.1
20260509084541 49 0.0 6.0 0.00 0.07 0.00 94 1005.0
20260509083037 49 0.0 4.0 0.00 0.07 0.00 94 1005.1
20260509081536 50 0.0 6.0 0.00 0.07 0.00 94 1005.2
20260509080053 50 0.0 4.0 0.00 0.07 0.00 94 1005.2
20260509074534 50 0.0 4.0 0.00 0.07 0.00 93 1005.0
20260509073058 50 0.0 3.0 0.00 0.07 0.00 93 1005.2
20260509071530 51 0.0 2.0 0.00 0.07 0.00 93 1005.4
20260509070028 51 0.0 3.0 0.00 0.07 0.00 93 1005.5
20260509064528 51 0.0 5.0 0.00 0.07 0.00 93 1005.6
20260509063029 52 0.0 4.0 0.00 0.07 0.00 93 1005.5
20260509061524 52 0.0 3.0 0.00 0.07 0.00 93 1005.7
20260509060021 52 0.0 6.0 0.00 0.07 0.00 92 1005.9
20260509054528 52 0.0 4.0 0.00 0.07 0.00 92 1006.0
20260509053119 52 0.0 6.0 0.00 0.07 0.00 92 1006.0
20260509051516 53 0.0 5.0 0.00 0.07 0.00 91 1006.2
20260509050014 53 0.0 4.0 0.00 0.07 0.00 91 1006.2
20260509044515 53 0.0 4.0 0.00 0.07 0.07 90 1006.4
20260509043031 53 0.0 4.0 0.00 0.07 0.07 90 1006.4
20260509041513 53 0.0 5.0 0.00 0.07 0.07 89 1006.4
20260509040012 54 0.0 3.0 0.00 0.07 0.07 89 1006.5
20260509034513 54 0.0 4.0 0.00 0.07 0.07 88 1006.6
20260509033011 54 0.0 4.0 0.00 0.07 0.07 87 1006.9
20260509031510 55 0.0 4.0 0.00 0.07 0.07 86 1006.9
20260509030009 55 0.0 4.0 0.00 0.07 0.07 85 1007.0
20260509024511 55 0.0 4.0 0.00 0.07 0.07 85 1006.8
20260509023017 56 0.0 5.0 0.00 0.07 0.07 84 1006.8
20260509021517 56 0.0 4.0 0.00 0.07 0.07 83 1006.8
20260509020008 57 0.0 5.0 0.00 0.07 0.07 82 1006.8
20260509014507 57 0.0 4.0 0.00 0.07 0.07 81 1006.7
20260509013020 58 0.0 5.0 0.00 0.07 0.07 79 1006.7
20260509011507 59 0.0 5.0 0.00 0.07 0.07 78 1006.7
20260509010006 59 0.0 11.0 0.00 0.07 0.07 77 1006.6
20260509004517 60 0.0 9.0 0.00 0.07 0.07 75 1006.5
20260509003006 61 0.0 9.0 0.00 0.07 0.07 75 1006.4
20260509001504 61 0.0 13.0 0.00 0.07 0.07 73 1006.3
20260509000003 62 0.0 14.0 0.00 0.07 0.07 71 1006.4
20260508234503 63 0.0 10.0 0.00 0.07 0.07 68 1006.4
20260508233002 63 0.0 14.0 0.00 0.07 0.07 67 1006.4
20260508231501 64 0.0 15.0 0.00 0.07 0.07 68 1006.4
20260508224559 64 0.0 12.0 0.00 0.07 0.07 69 1006.4
20260508223057 64 0.0 14.0 0.00 0.07 0.07 70 1006.6
20260508221557 64 0.0 12.0 0.00 0.07 0.07 70 1006.7
20260508220059 64 0.0 12.0 0.00 0.07 0.07 69 1006.7
20260508214554 64 0.0 12.0 0.00 0.07 0.07 71 1006.7
20260508213053 63 0.0 10.0 0.00 0.07 0.07 73 1006.7
20260508211557 63 0.0 11.0 0.00 0.07 0.07 73 1006.7
20260508210106 63 0.0 11.0 0.00 0.07 0.07 72 1006.8
20260508204554 63 0.0 12.0 0.00 0.07 0.07 72 1006.9
20260508203049 63 0.0 14.0 0.00 0.07 0.07 72 1007.1
20260508201546 63 0.0 12.0 0.00 0.07 0.07 72 1007.3
20260508200048 63 0.0 11.0 0.00 0.07 0.07 70 1007.6
20260508194547 63 0.0 12.0 0.00 0.07 0.07 70 1007.6
20260508193050 64 0.0 11.0 0.00 0.07 0.07 70 1007.7
20260508191541 64 0.0 3.0 0.00 0.07 0.07 68 1007.8
20260508190049 63 0.0 0.0 0.00 0.07 0.07 69 1008.0
20260508184554 62 0.0 0.0 0.00 0.07 0.07 69 1008.3
20260508183034 62 0.0 3.0 0.00 0.07 0.07 68 1008.6
20260508181547 62 0.0 5.0 0.00 0.07 0.07 69 1008.5
20260508180032 62 0.0 3.0 0.00 0.07 0.07 71 1008.7
20260508174527 62 0.0 5.0 0.00 0.07 0.07 71 1008.9